SL-14 R/B, 18422

Orbit data source: Space-Track

SL-14 R/B, 18422 is space debris in LEO originally from a launch on Tue, 20 Oct 1987 UTC launched from the Plesetsk Missile And Space Complex (PKMTR). Debris objects in space refer to the collection of defunct objects orbiting the Earth. Examples of debris include non-operational satellites, rocket bodies, and fragments generated from explosions, collisions, or faulty payload assembly.

Loading next visibility...
Identifier
18422, 1987-088B
Orbit
LEO
Country
Flag of CISCIS
Related business
Manufacturer
Yuzhnoe
Mission
Spacecraft
Bus & Motor
S5M, Unknown motor
Mass
1,600 kg wet, 1,600 kg dry
Launch date (UTC)
1987-10-20 (38 years ago)
Launch vehicle
Unknown
Launch site
Plesetsk Missile And Space Complex (PKMTR)
Object type
Payload
Rocket body
Debris
Shape & HBR
Cyl, 1.4 m
Radar Cross Section
7.351 m², Large (>1 m²)

Expand to show TLE details & history
Last TLE update: 1 day ago

TLE from 1 day ago
0 SL-14 R/B
1 18422U 87088B   26034.21512627  .00000498  00000-0  54916-4 0  9999
2 18422  82.5100  99.6365 0020056 122.5527 237.7630 14.85295081 48182
Epoch: 2026-02-03T05:09Z
TLE epoch observation values (Epoch: 2026-02-03T05:09:46.909Z)
Latitude
-0.00002°
Longitude
-111.20822°
Altitude
623.201 km
Speed
7.543 km/s
True Right ascension
06h 38m 32s
True Declination
0° 00' 00"
Sunlit
Object was in full shadow at epoch
Visualization orbit readout
Latitude
Unknown
Longitude
Unknown
Altitude
Unknown
Speed
Unknown
Apparent Right ascension
Unknown
Apparent Declination
Unknown
Sunlit
N/A
Visualization observer readout
Local Sidereal Time
07:09:46
Azimuth
Unknown
Elevation
Unknown
Doppler factor
Unknown
Orbital elements
Apogee altitude
623.69 km
Perigee altitude
595.661 km
Semi-major axis
6,987.813 km
Eccentricity
0.00201
Inclination
82.51°
RAAN
99.6365°
Arg. of periapsis
122.5527°
True anomaly
237.56886°
Mean anomaly
237.763°
Eccentric anomaly
237.66591°
Mean motion
3.71562 °/min
Orbital period
96.89 mins
BSTAR
0.000054916
Loading maneuver chart data...
Computing Atmospheric mass density...
Loading historical data...
Loading historical data...
Loading historical data...
Loading historical data...
Loading historical data...
Loading historical data...
Loading historical data...
Other satellites on launch #88 in the year 1987 (1987-10-20 UTC)

Documentation

Showing up to 5 results
|